User: anonymous   Login
Location: Équennes
(49.7375°N, 1.9622°E)
Time: 23:59:53
(UTC+00:00)
Language:

NOSS 3-3 (C) - Orbit

View from above orbital plane
View from above orbital plane
View from above satellite
View from above satellite

Ground track
Ground track

The orbit data is extracted from the following two-line orbital elements,

1 28541U 05004C   23142.16731790 0.00000000  00000-0  00000-0 0    08
2 28541  63.4128  61.0839 0455914   0.1693 359.8911 13.40871754    06
Epoch (UTC): 22 May 2023 04:00:56
Eccentricity: 0.0455914
inclination: 63.4128°
perigee height: 765 km
apogee height: 1447 km
right ascension of ascending node: 61.0839°
argument of perigee: 0.1693°
revolutions per day: 13.40871754
mean anomaly at epoch: 359.8911°
orbit number at epoch: 0

The dashed part of the orbit path shows where the satellite is in the earth's shadow,  

DLR